Location: ????? ??????
(37.8317°N, 23.8750°E)
Time: 13:44:43
(UTC+00:00)

Lacrosse 5 - Pass Details

Date: 20 January 2021
Orbit: 715 x 724 km, 57.0° (Epoch: 03 March)

Event Time Altitude Azimuth Distance (km) Brightness Sun altitude
Rises 17:38:16 0° 320° (NW) 3,120 5.6 -24.2°
Reaches altitude 10° 17:40:40 10° 323° (NW) 2,198 4.7 -24.6°
Enters shadow 17:45:00 59° 1° (N) 827 2.0 -25.5°
